Meteo Giornale » Osservazioni meteo Giappone » Kitakyushu
ore: 22:00 - Osservazioni Meteo Kitakyushu
Lat. 33° 50' N Lon. 130° 57' E Alt. 3 metri s.l.m.
29 °C
Molto Nuvoloso
Temp. 24 Ore
28 °C
32 °C
Est/Sud-Est
25.9 Km/h
Dew point 24 °C
Umidità 74 %
Visibilità 10 Km
Il sole sorge alle ore 05:49
Il sole tramonta alle ore 18:42
| Data e Ora | Cielo e Fenomeni | T °C | DP °C | Um. % | Pres. hPa | Vis. km | Vento km/h | |
|---|---|---|---|---|---|---|---|---|
| Oggi h: 22:00 | Molto Nuvoloso | 29 | 24 | 74 | 1012 | 10 | E/SE 25.9 | |
| Oggi h: 21:00 | Nuvoloso | 29 | 25 | 79 | 1012 | 10 | E/SE 25.9 | |
| Oggi h: 20:00 | Nuvoloso | 29 | 25 | 79 | 1011 | 10 | E 25.9 | |
| Oggi h: 19:00 | Molto Nuvoloso | 30 | 25 | 74 | 1011 | 10 | E 18.5 | |
| Oggi h: 18:00 | Nuvoloso | 30 | 25 | 74 | 1011 | 10 | E/SE 22.2 | |
| Oggi h: 17:00 | Nuvoloso | 31 | 24 | 66 | 1011 | 10 | E 20.3 | |
| Oggi h: 16:00 | Poco Nuvoloso | 31 | 24 | 66 | 1011 | 10 | E 18.5 | |
| Oggi h: 15:00 | Nuvoloso | 31 | 25 | 70 | 1011 | 10 | E/NE 18.5 | |
| Oggi h: 14:00 | Nuvoloso | 31 | 25 | 70 | 1011 | 10 | E 20.3 | |
| Oggi h: 13:00 | Molto Nuvoloso | 30 | 25 | 74 | 1012 | 10 | E 22.2 | |
| Oggi h: 12:00 | Nuvoloso | 32 | 24 | 62 | 1012 | 10 | E/SE 22.2 | |
| Oggi h: 11:00 | Nuvoloso | 31 | 24 | 66 | 1012 | 10 | SE 29.6 | |
| Oggi h: 10:00 | Poco Nuvoloso | 31 | 25 | 70 | 1013 | 10 | E/SE 18.5 | |
| Oggi h: 09:00 | Nuvoloso | 30 | 24 | 70 | 1012 | 10 | E/SE 16.7 | |
| Oggi h: 08:00 | Poco Nuvoloso | 29 | 24 | 74 | 1012 | 10 | SE 18.5 | |
| Oggi h: 07:00 | Poco Nuvoloso | 28 | 23 | 74 | 1012 | 10 | SE 16.7 | |
| Oggi h: 06:00 | Poco Nuvoloso | 28 | 25 | 83 | 1011 | 10 | S/SE 11.1 | |
| Oggi h: 05:00 | Poco Nuvoloso | 28 | 24 | 78 | 1011 | 10 | S/SE 14.8 | |
| Oggi h: 04:00 | Molto Nuvoloso | 28 | 24 | 78 | 1011 | 10 | S/SE 13 | |
| Oggi h: 03:00 | Coperto | 28 | 25 | 83 | 1011 | 10 | S 9.3 | |
| Oggi h: 02:00 | Sereno | 28 | 24 | 78 | 1011 | 10 | O/SO 11.1 | |
| Oggi h: 01:00 | Sereno | 29 | 25 | 79 | 1011 | 10 | O/SO 11.1 | |
| Oggi h: 00:00 | Sereno | 28 | 25 | 83 | 1011 | 10 | O/NO 18.5 | |
| Ieri h: 23:00 | Molto Nuvoloso | 29 | 25 | 79 | 1011 | 10 | N/NE 18.5 | |



